User: anonymous   Login
Location: Ash Swamp
(41.5170°N, 74.6157°W)
Time: 22:25:26
(UTC+00:00)
Language:

Cosmos 1295 Rocket - Orbit

View from above orbital plane
View from above orbital plane
View from above satellite
View from above satellite

Ground track
Ground track

The orbit data is extracted from the following two-line orbital elements,

1 12682U 81077B   20263.54091342 +.00000028 +00000-0 +12787-4 0  9992
2 12682 082.9190 205.7751 0032571 244.4599 115.3190 13.78595172966607
Epoch (UTC): 19 September 2020 12:58:54
Eccentricity: 0.0032571
inclination: 82.9190°
perigee height: 945 km
apogee height: 993 km
right ascension of ascending node: 205.7751°
argument of perigee: 244.4599°
revolutions per day: 13.78595172
mean anomaly at epoch: 115.3190°
orbit number at epoch: 96660

The dashed part of the orbit path shows where the satellite is in the earth's shadow,  

DLR